Year,Month,Day,Hour,Minute,Value (Times are PST for barometer in hPa)
2016,10,14,04,32,987.03
2016,10,14,04,33,986.96
2016,10,14,04,34,987.03
2016,10,14,04,35,987.03
2016,10,14,04,36,987.03
2016,10,14,04,37,987.06
2016,10,14,04,38,987.10
2016,10,14,04,39,987.00
2016,10,14,04,40,987.06
2016,10,14,04,41,987.03
2016,10,14,04,42,987.03
2016,10,14,04,43,987.00
2016,10,14,04,44,987.03
2016,10,14,04,45,987.16
2016,10,14,04,46,987.10
2016,10,14,04,47,987.00
2016,10,14,04,48,986.93
2016,10,14,04,49,987.03
2016,10,14,04,50,987.03
2016,10,14,04,51,987.13
2016,10,14,04,52,987.13
2016,10,14,04,53,987.23
2016,10,14,04,54,987.13
2016,10,14,04,55,987.13
2016,10,14,04,56,987.06
2016,10,14,04,57,987.06
2016,10,14,04,58,987.10
2016,10,14,04,59,987.13
2016,10,14,05,00,987.10
2016,10,14,05,01,987.26
2016,10,14,05,02,987.27
2016,10,14,05,03,987.40
2016,10,14,05,04,987.53
2016,10,14,05,05,987.51
2016,10,14,05,06,987.51
2016,10,14,05,07,987.61
2016,10,14,05,08,987.81
2016,10,14,05,09,987.98
2016,10,14,05,10,987.91
2016,10,14,05,11,988.05
2016,10,14,05,12,987.84
2016,10,14,05,13,988.05
2016,10,14,05,14,987.95
2016,10,14,05,15,988.10
2016,10,14,05,16,988.25
2016,10,14,05,17,988.08
2016,10,14,05,18,988.15
2016,10,14,05,19,988.55
2016,10,14,05,20,988.59
2016,10,14,05,21,988.45
2016,10,14,05,22,988.01
2016,10,14,05,23,988.32
2016,10,14,05,24,988.42
2016,10,14,05,25,988.35
2016,10,14,05,26,988.26
2016,10,14,05,27,988.35
2016,10,14,05,28,988.15
2016,10,14,05,29,987.98
2016,10,14,05,30,987.88
2016,10,14,05,31,987.84
2016,10,14,05,32,987.71
2016,10,14,05,33,987.95
2016,10,14,05,34,987.88
2016,10,14,05,35,987.88
2016,10,14,05,36,987.84
2016,10,14,05,37,987.81
2016,10,14,05,38,987.58
2016,10,14,05,39,987.47
2016,10,14,05,40,987.57
2016,10,14,05,41,987.37
2016,10,14,05,42,987.47
2016,10,14,05,43,987.40
2016,10,14,05,44,987.51
2016,10,14,05,45,987.57
2016,10,14,05,46,987.67
2016,10,14,05,47,987.74
2016,10,14,05,48,987.81
2016,10,14,05,49,987.81
2016,10,14,05,50,987.78
2016,10,14,05,51,987.95
2016,10,14,05,52,987.98
2016,10,14,05,53,987.95
2016,10,14,05,54,988.01
2016,10,14,05,55,988.05
2016,10,14,05,56,988.18
2016,10,14,05,57,988.22
2016,10,14,05,58,988.25
2016,10,14,05,59,988.28
2016,10,14,06,00,988.28
2016,10,14,06,01,988.25
2016,10,14,06,02,988.18
2016,10,14,06,03,988.22
2016,10,14,06,04,988.22
2016,10,14,06,05,988.05
2016,10,14,06,06,988.15
2016,10,14,06,07,987.89
2016,10,14,06,08,987.95
2016,10,14,06,09,987.88
2016,10,14,06,10,987.78
2016,10,14,06,11,987.78
2016,10,14,06,12,987.61
2016,10,14,06,13,987.54
2016,10,14,06,14,987.61
2016,10,14,06,15,987.61
2016,10,14,06,16,987.57
2016,10,14,06,17,987.61
2016,10,14,06,18,987.61
2016,10,14,06,19,987.61
2016,10,14,06,20,987.51
2016,10,14,06,21,987.40
2016,10,14,06,22,987.30
2016,10,14,06,23,987.20
2016,10,14,06,24,987.23
2016,10,14,06,25,987.27
2016,10,14,06,26,987.40
2016,10,14,06,27,987.47
2016,10,14,06,28,987.61
2016,10,14,06,29,987.78
2016,10,14,06,30,987.67
2016,10,14,06,31,987.67
2016,10,14,06,32,987.51
2016,10,14,06,33,987.27
2016,10,14,06,34,987.20
2016,10,14,06,35,987.27
2016,10,14,06,36,987.30
2016,10,14,06,37,987.20
2016,10,14,06,38,987.23
2016,10,14,06,39,987.30
2016,10,14,06,40,987.30
2016,10,14,06,41,987.27
2016,10,14,06,42,987.34
2016,10,14,06,43,987.30
2016,10,14,06,44,987.40
2016,10,14,06,45,987.51
2016,10,14,06,46,987.57
2016,10,14,06,47,987.81
2016,10,14,06,48,987.81
2016,10,14,06,49,987.85
2016,10,14,06,50,987.95
2016,10,14,06,51,988.08
2016,10,14,06,52,988.15
2016,10,14,06,53,988.05
2016,10,14,06,54,987.91
2016,10,14,06,55,987.91
2016,10,14,06,56,987.71
2016,10,14,06,57,987.74
2016,10,14,06,58,987.81
2016,10,14,06,59,987.71
2016,10,14,07,00,987.95
2016,10,14,07,01,988.15
2016,10,14,07,02,988.22
2016,10,14,07,03,988.28
2016,10,14,07,04,988.28
2016,10,14,07,05,988.22
2016,10,14,07,06,988.35
2016,10,14,07,07,988.28
2016,10,14,07,08,988.25
2016,10,14,07,09,988.15
2016,10,14,07,10,988.08
2016,10,14,07,11,987.96
2016,10,14,07,12,987.91
2016,10,14,07,13,987.91
2016,10,14,07,14,987.84
2016,10,14,07,15,987.81
2016,10,14,07,16,987.95
2016,10,14,07,17,987.98
2016,10,14,07,18,987.95
2016,10,14,07,19,987.95
2016,10,14,07,20,987.95
2016,10,14,07,21,987.84
2016,10,14,07,22,987.84
2016,10,14,07,23,987.98
2016,10,14,07,24,988.11
2016,10,14,07,25,988.24
2016,10,14,07,26,988.15
2016,10,14,07,27,988.18
2016,10,14,07,28,988.15
2016,10,14,07,29,988.08
2016,10,14,07,30,988.01
2016,10,14,07,31,988.08
2016,10,14,07,32,988.22
2016,10,14,07,33,988.15
2016,10,14,07,34,988.08
2016,10,14,07,35,988.05
2016,10,14,07,36,987.98
2016,10,14,07,37,987.88
2016,10,14,07,38,987.98
2016,10,14,07,39,988.01
2016,10,14,07,40,987.89
2016,10,14,07,41,987.78
2016,10,14,07,42,987.78
2016,10,14,07,43,987.74
2016,10,14,07,44,987.78
2016,10,14,07,45,987.74
2016,10,14,07,46,987.71
2016,10,14,07,47,987.64
2016,10,14,07,48,987.64
2016,10,14,07,49,987.57
2016,10,14,07,50,987.43
2016,10,14,07,51,987.30
2016,10,14,07,52,987.23
2016,10,14,07,53,987.51
2016,10,14,07,54,987.60
2016,10,14,07,55,987.71
2016,10,14,07,56,987.71
2016,10,14,07,57,987.55
2016,10,14,07,58,987.61
2016,10,14,07,59,987.51
2016,10,14,08,00,987.57
2016,10,14,08,01,987.73
2016,10,14,08,02,987.77
2016,10,14,08,03,987.67
2016,10,14,08,04,987.74
2016,10,14,08,05,987.71
2016,10,14,08,06,987.71
2016,10,14,08,07,987.71
2016,10,14,08,08,987.74
2016,10,14,08,09,987.81
2016,10,14,08,10,987.84
2016,10,14,08,11,987.95
2016,10,14,08,12,987.85
2016,10,14,08,13,987.81
2016,10,14,08,14,987.81
2016,10,14,08,15,987.84
2016,10,14,08,16,987.84
2016,10,14,08,17,987.78
2016,10,14,08,18,987.78
2016,10,14,08,19,987.71
2016,10,14,08,20,987.67
2016,10,14,08,21,987.67
2016,10,14,08,22,987.67
2016,10,14,08,23,987.71
2016,10,14,08,24,987.71
2016,10,14,08,25,987.71
2016,10,14,08,26,987.67
2016,10,14,08,27,987.67
2016,10,14,08,28,987.51
2016,10,14,08,29,987.38
2016,10,14,08,30,987.30
2016,10,14,08,31,987.37
2016,10,14,08,32,987.47
2016,10,14,08,33,987.51
2016,10,14,08,34,987.54
2016,10,14,08,35,987.54
2016,10,14,08,36,987.47
2016,10,14,08,37,987.44
2016,10,14,08,38,987.51
2016,10,14,08,39,987.67
2016,10,14,08,40,987.61
2016,10,14,08,41,987.54
2016,10,14,08,42,987.40
2016,10,14,08,43,987.30
2016,10,14,08,44,987.20
2016,10,14,08,45,987.17
2016,10,14,08,46,987.20
2016,10,14,08,47,987.37
2016,10,14,08,48,987.47
2016,10,14,08,49,987.37
2016,10,14,08,50,987.23
2016,10,14,08,51,987.10
2016,10,14,08,52,987.00
2016,10,14,08,53,987.00
2016,10,14,08,54,986.86
2016,10,14,08,55,986.93
2016,10,14,08,56,986.86
2016,10,14,08,57,986.79
2016,10,14,08,58,986.83
2016,10,14,08,59,986.83
2016,10,14,09,00,986.76
2016,10,14,09,01,986.76
2016,10,14,09,02,986.79
2016,10,14,09,03,986.83
2016,10,14,09,04,986.93
2016,10,14,09,05,986.86
2016,10,14,09,06,986.96
2016,10,14,09,07,987.03
2016,10,14,09,08,987.00
2016,10,14,09,09,987.03
2016,10,14,09,10,987.10
2016,10,14,09,11,987.20
2016,10,14,09,12,987.23
2016,10,14,09,13,987.27
2016,10,14,09,14,987.17
2016,10,14,09,15,987.30
2016,10,14,09,16,987.18
2016,10,14,09,17,987.10
2016,10,14,09,18,987.20
2016,10,14,09,19,987.10
2016,10,14,09,20,987.13
2016,10,14,09,21,987.14
2016,10,14,09,22,987.30
2016,10,14,09,23,987.40
2016,10,14,09,24,987.44
2016,10,14,09,25,987.47
2016,10,14,09,26,987.47
2016,10,14,09,27,987.44
2016,10,14,09,28,987.47
2016,10,14,09,29,987.51
2016,10,14,09,30,987.40
2016,10,14,09,31,987.40
2016,10,14,09,32,987.37
2016,10,14,09,33,987.30
2016,10,14,09,34,987.17
2016,10,14,09,35,987.10
2016,10,14,09,36,987.06
2016,10,14,09,37,987.03
2016,10,14,09,38,987.03
2016,10,14,09,39,986.93
2016,10,14,09,40,986.86
2016,10,14,09,41,986.73
2016,10,14,09,42,986.69
2016,10,14,09,43,986.69
2016,10,14,09,44,986.59
2016,10,14,09,45,986.52
2016,10,14,09,46,986.46
2016,10,14,09,47,986.46
2016,10,14,09,48,986.46
2016,10,14,09,49,986.42
2016,10,14,09,50,986.46
2016,10,14,09,51,986.49
2016,10,14,09,52,986.52
2016,10,14,09,53,986.52
2016,10,14,09,54,986.49
2016,10,14,09,55,986.46
2016,10,14,09,56,986.35
2016,10,14,09,57,986.35
2016,10,14,09,58,986.42
2016,10,14,09,59,986.35
2016,10,14,10,00,986.25
2016,10,14,10,01,986.17
2016,10,14,10,02,986.08
2016,10,14,10,03,986.08
2016,10,14,10,04,986.02
2016,10,14,10,05,986.05
2016,10,14,10,06,986.03
2016,10,14,10,07,986.12
2016,10,14,10,08,986.08
2016,10,14,10,09,986.08
2016,10,14,10,10,986.08
2016,10,14,10,11,986.08
2016,10,14,10,12,986.18
2016,10,14,10,13,986.15
2016,10,14,10,14,986.15
2016,10,14,10,15,986.22
2016,10,14,10,16,986.18
2016,10,14,10,17,986.15
2016,10,14,10,18,986.08
2016,10,14,10,19,986.12
2016,10,14,10,20,986.12
2016,10,14,10,21,986.18
2016,10,14,10,22,986.18
2016,10,14,10,23,986.12
2016,10,14,10,24,986.12
2016,10,14,10,25,986.15
2016,10,14,10,26,986.18
2016,10,14,10,27,986.22
2016,10,14,10,28,986.25
2016,10,14,10,29,986.29
2016,10,14,10,30,986.29
2016,10,14,10,31,986.25
2016,10,14,10,32,986.22
2016,10,14,10,33,986.25
2016,10,14,10,34,986.18
2016,10,14,10,35,986.15
2016,10,14,10,36,986.08
2016,10,14,10,37,986.12
2016,10,14,10,38,986.02
2016,10,14,10,39,986.02
2016,10,14,10,40,985.98
2016,10,14,10,41,985.98
2016,10,14,10,42,985.95
2016,10,14,10,43,985.95
2016,10,14,10,44,985.91
2016,10,14,10,45,985.85
2016,10,14,10,46,985.85
2016,10,14,10,47,985.88
2016,10,14,10,48,985.88
2016,10,14,10,49,985.95
2016,10,14,10,50,985.91
2016,10,14,10,51,985.88
2016,10,14,10,52,985.78
2016,10,14,10,53,985.68
2016,10,14,10,54,985.68
2016,10,14,10,55,985.68
2016,10,14,10,56,985.64
2016,10,14,10,57,985.54
2016,10,14,10,58,985.51
2016,10,14,10,59,985.51
2016,10,14,11,00,985.41
2016,10,14,11,01,985.44
2016,10,14,11,02,985.47
2016,10,14,11,03,985.47
2016,10,14,11,04,985.44
2016,10,14,11,05,985.41
2016,10,14,11,06,985.37
2016,10,14,11,07,985.20
2016,10,14,11,08,985.09
2016,10,14,11,09,985.01
2016,10,14,11,10,985.13
2016,10,14,11,11,985.13
2016,10,14,11,12,985.10
2016,10,14,11,13,985.16
2016,10,14,11,14,985.07
2016,10,14,11,15,985.07
2016,10,14,11,16,985.07
2016,10,14,11,17,985.13
2016,10,14,11,18,985.20
2016,10,14,11,19,985.17
2016,10,14,11,20,985.17
2016,10,14,11,21,985.20
2016,10,14,11,22,985.20
2016,10,14,11,23,985.13
2016,10,14,11,24,985.17
2016,10,14,11,25,985.13
2016,10,14,11,26,985.13
2016,10,14,11,27,985.13
2016,10,14,11,28,985.13
2016,10,14,11,29,985.07
2016,10,14,11,30,985.10
2016,10,14,11,31,985.10
2016,10,14,11,32,985.03
2016,10,14,11,33,984.97
2016,10,14,11,34,984.90
2016,10,14,11,35,984.76
2016,10,14,11,36,984.66
2016,10,14,11,37,984.69
2016,10,14,11,38,984.66
2016,10,14,11,39,984.66
2016,10,14,11,40,984.63
2016,10,14,11,41,984.53
2016,10,14,11,42,984.48
2016,10,14,11,43,984.36
2016,10,14,11,44,984.36
2016,10,14,11,45,984.32
2016,10,14,11,46,984.29
2016,10,14,11,47,984.29
2016,10,14,11,48,984.25
2016,10,14,11,49,984.22
2016,10,14,11,50,984.15
2016,10,14,11,51,984.29
2016,10,14,11,52,984.32
2016,10,14,11,53,984.32
2016,10,14,11,54,984.32
2016,10,14,11,55,984.39
2016,10,14,11,56,984.42
2016,10,14,11,57,984.38
2016,10,14,11,58,984.19
2016,10,14,11,59,984.08
2016,10,14,12,00,984.19
2016,10,14,12,01,984.15
2016,10,14,12,02,984.08
2016,10,14,12,03,983.85
2016,10,14,12,04,983.85
2016,10,14,12,05,983.81
2016,10,14,12,06,983.81
2016,10,14,12,07,983.91
2016,10,14,12,08,983.81
2016,10,14,12,09,983.71
2016,10,14,12,10,983.84
2016,10,14,12,11,983.71
2016,10,14,12,12,983.84
2016,10,14,12,13,983.71
2016,10,14,12,14,983.67
2016,10,14,12,15,983.51
2016,10,14,12,16,983.58
2016,10,14,12,17,983.48
2016,10,14,12,18,983.41
2016,10,14,12,19,983.58
2016,10,14,12,20,983.61
2016,10,14,12,21,983.58
2016,10,14,12,22,983.54
2016,10,14,12,23,983.54
2016,10,14,12,24,983.37
2016,10,14,12,25,983.37
2016,10,14,12,26,983.41
2016,10,14,12,27,983.37
2016,10,14,12,28,983.37
2016,10,14,12,29,983.41
2016,10,14,12,30,983.54
2016,10,14,12,31,983.61
2016,10,14,12,32,983.68
2016,10,14,12,33,983.61
2016,10,14,12,34,983.61
2016,10,14,12,35,983.68
2016,10,14,12,36,983.68
2016,10,14,12,37,983.61
2016,10,14,12,38,983.48
2016,10,14,12,39,983.41
2016,10,14,12,40,983.61
2016,10,14,12,41,983.71
2016,10,14,12,42,983.75
2016,10,14,12,43,983.88
2016,10,14,12,44,983.78
2016,10,14,12,45,983.78
2016,10,14,12,46,983.70
2016,10,14,12,47,983.54
2016,10,14,12,48,983.51
2016,10,14,12,49,983.51
2016,10,14,12,50,983.54
2016,10,14,12,51,983.51
2016,10,14,12,52,983.41
2016,10,14,12,53,983.48
2016,10,14,12,54,983.61
2016,10,14,12,55,983.61
2016,10,14,12,56,983.68
2016,10,14,12,57,983.61
2016,10,14,12,58,983.34
2016,10,14,12,59,983.44
2016,10,14,13,00,983.24
2016,10,14,13,01,982.84
2016,10,14,13,02,983.00
2016,10,14,13,03,983.17
2016,10,14,13,04,983.37
2016,10,14,13,05,983.31
2016,10,14,13,06,983.34
2016,10,14,13,07,983.44
2016,10,14,13,08,983.48
2016,10,14,13,09,983.44
2016,10,14,13,10,983.34
2016,10,14,13,11,983.24
2016,10,14,13,12,983.37
2016,10,14,13,13,983.41
2016,10,14,13,14,983.36
2016,10,14,13,15,983.27
2016,10,14,13,16,983.41
2016,10,14,13,17,983.51
2016,10,14,13,18,983.41
2016,10,14,13,19,983.41
2016,10,14,13,20,983.48
2016,10,14,13,21,983.54
2016,10,14,13,22,983.64
2016,10,14,13,23,983.54
2016,10,14,13,24,983.51
2016,10,14,13,25,983.44
2016,10,14,13,26,983.41
2016,10,14,13,27,983.41
2016,10,14,13,28,983.31
2016,10,14,13,29,983.42
2016,10,14,13,30,983.58
2016,10,14,13,31,983.31
2016,10,14,13,32,983.41
2016,10,14,13,38,983.88
2016,10,14,13,39,983.88
2016,10,14,13,40,984.22
2016,10,14,13,41,983.92
2016,10,14,13,42,983.85
2016,10,14,13,43,983.78
2016,10,14,13,44,983.75
2016,10,14,13,45,983.92
2016,10,14,16,25,990.38
2016,10,14,16,26,990.38
2016,10,14,16,27,990.38
2016,10,14,16,28,990.52
2016,10,14,16,29,990.62
2016,10,14,16,30,990.62
2016,10,14,16,31,990.65
2016,10,14,16,32,990.69
2016,10,14,16,33,990.65
2016,10,14,16,34,990.69
2016,10,14,16,35,990.76
2016,10,14,16,36,990.79
2016,10,14,16,37,990.86
2016,10,14,16,38,990.82
2016,10,14,16,39,990.89
2016,10,14,16,40,990.89
2016,10,14,16,41,990.89
2016,10,14,16,42,990.86
2016,10,14,16,43,990.96
2016,10,14,16,44,990.98
2016,10,14,16,45,990.90
2016,10,14,16,46,991.03
2016,10,14,16,47,991.03
2016,10,14,16,48,991.09
2016,10,14,16,49,991.13
2016,10,14,16,50,991.23
2016,10,14,16,51,991.20
2016,10,14,16,52,991.26
2016,10,14,16,53,991.17
2016,10,14,16,54,991.33
2016,10,14,16,55,991.33
2016,10,14,16,56,991.30
2016,10,14,16,57,991.40
2016,10,14,16,58,991.47
2016,10,14,16,59,991.57
2016,10,14,17,00,991.50
2016,10,14,17,01,991.51
2016,10,14,17,02,991.60
2016,10,14,17,03,991.67
2016,10,14,17,04,991.67
2016,10,14,17,05,991.67
2016,10,14,17,06,991.74
2016,10,14,17,07,991.81
2016,10,14,17,08,991.77
2016,10,14,17,09,991.81
2016,10,14,17,10,991.81
2016,10,14,17,11,991.87
2016,10,14,17,12,991.87
2016,10,14,17,13,991.94
2016,10,14,17,14,991.98
2016,10,14,17,15,991.98
2016,10,14,17,16,991.98
2016,10,14,17,17,992.04
2016,10,14,17,18,992.11
2016,10,14,17,19,992.14
2016,10,14,17,20,992.18
2016,10,14,17,21,992.18
2016,10,14,17,22,992.18
2016,10,14,17,23,992.21
2016,10,14,17,24,992.25
2016,10,14,17,25,992.31
2016,10,14,17,26,992.28
2016,10,14,17,27,992.31
2016,10,14,17,28,992.35
2016,10,14,17,29,992.35
2016,10,14,17,30,992.45
2016,10,14,17,31,992.48
2016,10,14,17,32,992.52
2016,10,14,17,33,992.58
2016,10,14,17,34,992.62
2016,10,14,17,35,992.75
2016,10,14,17,36,992.75
2016,10,14,17,37,992.76
2016,10,14,17,38,992.86
2016,10,14,17,39,992.96
2016,10,14,17,40,993.03
2016,10,14,17,41,993.13
2016,10,14,17,42,993.14
2016,10,14,17,43,993.23
2016,10,14,17,44,993.33
2016,10,14,17,45,993.30
2016,10,14,17,46,993.27
2016,10,14,17,47,993.40
2016,10,14,17,48,993.47
2016,10,14,17,49,993.50
2016,10,14,17,50,993.53
2016,10,14,17,51,993.53
2016,10,14,17,52,993.63
2016,10,14,17,53,993.57
2016,10,14,17,54,993.63
2016,10,14,17,55,993.70
2016,10,14,17,56,993.70
2016,10,14,17,57,993.63
2016,10,14,17,58,993.70
2016,10,14,17,59,993.77
2016,10,14,18,00,993.77
2016,10,14,18,01,993.80
2016,10,14,18,02,993.91
2016,10,14,18,03,993.91
2016,10,14,18,04,993.87
2016,10,14,18,05,993.94
2016,10,14,18,06,993.94
2016,10,14,18,07,993.94
2016,10,14,18,08,993.97
2016,10,14,18,09,993.97
2016,10,14,18,10,993.95
2016,10,14,18,11,994.04
2016,10,14,18,12,994.04
2016,10,14,18,13,994.01
2016,10,14,18,14,994.07
2016,10,14,18,15,994.11
2016,10,14,18,16,994.14
2016,10,14,18,17,994.15
2016,10,14,18,18,994.28
2016,10,14,18,19,994.18
2016,10,14,18,20,994.15
2016,10,14,18,21,994.24
2016,10,14,18,22,994.28
2016,10,14,18,23,994.28
2016,10,14,18,24,994.24
2016,10,14,18,25,994.28
2016,10,14,18,26,994.31
2016,10,14,18,27,994.28
2016,10,14,18,28,994.38
2016,10,14,18,29,994.31
2016,10,14,18,30,994.38
2016,10,14,18,31,994.41
2016,10,14,18,32,994.45
2016,10,14,18,33,994.48
2016,10,14,18,34,994.52
2016,10,14,18,35,994.52
2016,10,14,18,36,994.48
2016,10,14,18,37,994.48
2016,10,14,18,38,994.52
2016,10,14,18,39,994.58
2016,10,14,18,40,994.65
2016,10,14,18,41,994.65
2016,10,14,18,42,994.68
2016,10,14,18,43,994.68
2016,10,14,18,44,994.72
2016,10,14,18,45,994.75
2016,10,14,18,46,994.75
2016,10,14,18,47,994.73
2016,10,14,18,48,994.85
2016,10,14,18,49,994.85
2016,10,14,18,50,994.79
2016,10,14,18,51,994.85
2016,10,14,18,52,994.92
2016,10,14,18,53,994.92
2016,10,14,18,54,994.96
2016,10,14,18,55,994.96
2016,10,14,18,56,994.99
2016,10,14,18,57,994.99
2016,10,14,18,58,995.02
2016,10,14,18,59,995.06
2016,10,14,19,00,995.06
2016,10,14,19,01,995.12
2016,10,14,19,02,995.19
2016,10,14,19,03,995.26
2016,10,14,19,04,995.26
2016,10,14,19,05,995.33
2016,10,14,19,06,995.36
2016,10,14,19,07,995.36
2016,10,14,19,08,995.40
2016,10,14,19,09,995.40
2016,10,14,19,10,995.43
2016,10,14,19,11,995.50
2016,10,14,19,12,995.53
2016,10,14,19,13,995.53
2016,10,14,19,14,995.53
2016,10,14,19,15,995.54
2016,10,14,19,16,995.67
2016,10,14,19,17,995.70
2016,10,14,19,18,995.70
2016,10,14,19,19,995.73
2016,10,14,19,20,995.73
2016,10,14,19,21,995.73
2016,10,14,19,22,995.80
2016,10,14,19,23,995.87
2016,10,14,19,24,995.87
2016,10,14,19,25,995.88
2016,10,14,19,26,996.01
2016,10,14,19,27,995.97
2016,10,14,19,28,996.04
2016,10,14,19,29,996.11
2016,10,14,19,30,996.11
2016,10,14,19,31,996.14
2016,10,14,19,32,996.21
2016,10,14,19,33,996.21
2016,10,14,19,34,996.21
2016,10,14,19,35,996.17
2016,10,14,19,36,996.24
2016,10,14,19,37,996.28
2016,10,14,19,38,996.28
2016,10,14,19,39,996.31
2016,10,14,19,40,996.31
2016,10,14,19,41,996.31
2016,10,14,19,42,996.38
2016,10,14,19,43,996.38
2016,10,14,19,44,996.39
2016,10,14,19,45,996.48
2016,10,14,19,46,996.48
2016,10,14,19,47,996.45
2016,10,14,19,48,996.45
2016,10,14,19,49,996.51
2016,10,14,19,50,996.55
2016,10,14,19,51,996.58
2016,10,14,19,52,996.58
2016,10,14,19,53,996.61
2016,10,14,19,54,996.65
2016,10,14,19,55,996.65
2016,10,14,19,56,996.72
2016,10,14,19,57,996.78
2016,10,14,19,58,996.72
2016,10,14,19,59,996.75
2016,10,14,20,00,996.78
2016,10,14,20,01,996.72
2016,10,14,20,02,996.72
2016,10,14,20,03,996.72
2016,10,14,20,04,996.78
2016,10,14,20,05,996.82
2016,10,14,20,06,996.82
2016,10,14,20,07,996.82
2016,10,14,20,08,996.82
2016,10,14,20,09,996.78
2016,10,14,20,10,996.82
2016,10,14,20,11,996.78
2016,10,14,20,12,996.78
2016,10,14,20,13,996.85
2016,10,14,20,14,996.85
2016,10,14,20,15,996.82
2016,10,14,20,16,996.85
2016,10,14,20,17,996.83
2016,10,14,20,18,996.92
2016,10,14,20,19,996.99
2016,10,14,20,20,996.99
2016,10,14,20,21,996.99
2016,10,14,20,22,996.99
2016,10,14,20,23,996.99
2016,10,14,20,24,997.05
2016,10,14,20,25,997.09
2016,10,14,20,26,997.05
2016,10,14,20,27,997.09
2016,10,14,20,28,997.09
2016,10,14,20,29,997.09
2016,10,14,20,30,997.12
2016,10,14,20,31,997.19
2016,10,14,20,32,997.19
2016,10,14,20,33,997.22
2016,10,14,20,34,997.22
2016,10,14,20,35,997.26
2016,10,14,20,36,997.26
2016,10,14,20,37,997.22
2016,10,14,20,38,997.22
2016,10,14,20,39,997.22
2016,10,14,20,40,997.22
2016,10,14,20,41,997.26
2016,10,14,20,42,997.29
2016,10,14,20,43,997.34
2016,10,14,20,44,997.39
2016,10,14,20,45,997.39
2016,10,14,20,46,997.43
2016,10,14,20,47,997.46
2016,10,14,20,48,997.50
2016,10,14,20,49,997.56
2016,10,14,20,50,997.60
2016,10,14,20,51,997.57
2016,10,14,20,52,997.66
2016,10,14,20,53,997.70
2016,10,14,20,54,997.63
2016,10,14,20,55,997.60
2016,10,14,20,56,997.63
2016,10,14,20,57,997.60
2016,10,14,20,58,997.63
2016,10,14,20,59,997.70
2016,10,14,21,00,997.73
2016,10,14,21,01,997.70
2016,10,14,21,02,997.73
2016,10,14,21,03,997.77
2016,10,14,21,04,997.77
2016,10,14,21,05,997.80
2016,10,14,21,06,997.83
2016,10,14,21,07,997.90
2016,10,14,21,08,997.94
2016,10,14,21,09,997.87
2016,10,14,21,10,997.87
2016,10,14,21,11,997.90
2016,10,14,21,12,997.94
2016,10,14,21,13,997.90
2016,10,14,21,14,997.90
2016,10,14,21,15,997.94
2016,10,14,21,16,997.90
2016,10,14,21,17,997.90
2016,10,14,21,18,997.95
2016,10,14,21,19,998.01
2016,10,14,21,20,998.10
2016,10,14,21,21,998.10
2016,10,14,21,22,998.10
2016,10,14,21,23,998.10
2016,10,14,21,24,998.10
2016,10,14,21,25,998.15
2016,10,14,21,26,998.21
2016,10,14,21,27,998.21
2016,10,14,21,28,998.24
2016,10,14,21,29,998.17
2016,10,14,21,30,998.21
2016,10,14,21,31,998.24
2016,10,14,21,32,998.24
2016,10,14,21,33,998.21
2016,10,14,21,34,998.21
2016,10,14,21,35,998.24
2016,10,14,21,36,998.27
2016,10,14,21,37,998.27
2016,10,14,21,38,998.31
2016,10,14,21,39,998.34
2016,10,14,21,40,998.34
2016,10,14,21,41,998.34
2016,10,14,21,42,998.38
2016,10,14,21,43,998.41
2016,10,14,21,44,998.48
2016,10,14,21,45,998.51
2016,10,14,21,46,998.49
2016,10,14,21,47,998.54
2016,10,14,21,48,998.55
2016,10,14,21,49,998.61
2016,10,14,21,50,998.58
2016,10,14,21,51,998.58
2016,10,14,21,52,998.58
2016,10,14,21,53,998.58
2016,10,14,21,54,998.61
2016,10,14,21,55,998.61
2016,10,14,21,56,998.61
2016,10,14,21,57,998.65
2016,10,14,21,58,998.65
2016,10,14,21,59,998.68
2016,10,14,22,00,998.68
2016,10,14,22,01,998.71
2016,10,14,22,02,998.71
2016,10,14,22,03,998.68
2016,10,14,22,04,998.68
2016,10,14,22,05,998.75
2016,10,14,22,06,998.75
2016,10,14,22,07,998.78
2016,10,14,22,08,998.82
2016,10,14,22,09,998.78
2016,10,14,22,10,998.78
2016,10,14,22,11,998.75
2016,10,14,22,12,998.71
2016,10,14,22,13,998.71
2016,10,14,22,14,998.71
2016,10,14,22,15,998.71
2016,10,14,22,16,998.71
2016,10,14,22,17,998.71
2016,10,14,22,18,998.71
2016,10,14,22,19,998.75
2016,10,14,22,20,998.82
2016,10,14,22,21,998.78
2016,10,14,22,22,998.78
2016,10,14,22,23,998.78
2016,10,14,22,24,998.84
2016,10,14,22,25,998.75
2016,10,14,22,26,998.78
2016,10,14,22,27,998.78
2016,10,14,22,28,998.76
2016,10,14,22,29,998.85
2016,10,14,22,30,998.82
2016,10,14,22,31,998.78
2016,10,14,22,32,998.78
2016,10,14,22,33,998.78
2016,10,14,22,34,998.82
2016,10,14,22,35,998.82
2016,10,14,22,36,998.85
2016,10,14,22,37,998.85
2016,10,14,22,38,998.85
2016,10,14,22,39,998.88
2016,10,14,22,40,998.95
2016,10,14,22,41,998.92
2016,10,14,22,42,998.92
2016,10,14,22,43,998.95
2016,10,14,22,44,998.92
2016,10,14,22,45,998.92
2016,10,14,22,46,998.85
2016,10,14,22,47,998.95
2016,10,14,22,48,998.92
2016,10,14,22,49,998.88
2016,10,14,22,50,998.92
2016,10,14,22,51,998.92
2016,10,14,22,52,998.95
2016,10,14,22,53,998.92
2016,10,14,22,54,998.85
2016,10,14,22,55,998.88
2016,10,14,22,56,998.88
2016,10,14,22,57,998.88
2016,10,14,22,58,998.92
2016,10,14,22,59,998.92
2016,10,14,23,00,998.88
2016,10,14,23,01,998.92
2016,10,14,23,02,998.88
2016,10,14,23,03,998.88
2016,10,14,23,04,998.88
2016,10,14,23,05,998.88
2016,10,14,23,06,998.88
2016,10,14,23,07,998.88
2016,10,14,23,08,998.88
2016,10,14,23,09,998.92
2016,10,14,23,10,998.92
2016,10,14,23,11,998.88
2016,10,14,23,12,998.88
2016,10,14,23,13,998.92
2016,10,14,23,14,998.88
2016,10,14,23,15,998.92
2016,10,14,23,16,998.92
2016,10,14,23,17,998.92
2016,10,14,23,18,998.95
2016,10,14,23,19,998.92
2016,10,14,23,20,998.92
2016,10,14,23,21,998.95
2016,10,14,23,22,998.95
2016,10,14,23,23,998.95
2016,10,14,23,24,998.99
2016,10,14,23,25,998.95
2016,10,14,23,26,998.99
2016,10,14,23,27,999.01
2016,10,14,23,28,998.95
2016,10,14,23,29,998.92
2016,10,14,23,30,998.92
2016,10,14,23,31,998.95
2016,10,14,23,32,998.99
2016,10,14,23,33,999.02
2016,10,14,23,34,998.99
2016,10,14,23,35,998.95
2016,10,14,23,36,998.95
2016,10,14,23,37,998.92
2016,10,14,23,38,998.95
2016,10,14,23,39,998.99
2016,10,14,23,40,999.02
2016,10,14,23,41,999.02
2016,10,14,23,42,999.02
2016,10,14,23,43,999.09
2016,10,14,23,44,999.09
2016,10,14,23,45,999.05
2016,10,14,23,46,999.05
2016,10,14,23,47,999.05
2016,10,14,23,48,999.05
2016,10,14,23,49,999.02
2016,10,14,23,50,999.05
2016,10,14,23,51,999.09
2016,10,14,23,52,999.09